TimeMDT,TemperatureF,Dew PointF,Humidity,Sea Level PressureIn,VisibilityMPH,Wind Direction,Wind SpeedMPH,Gust SpeedMPH,PrecipitationIn,Events,Conditions,WindDirDegrees,DateUTC
12:53 AM,25.0,3.9,41,30.17,10.0,NNE,6.9,-,N/A,,Clear,20,2012-10-06 06:53:00
1:53 AM,24.1,5.0,44,30.19,10.0,NNW,9.2,-,N/A,,Scattered Clouds,340,2012-10-06 07:53:00
2:53 AM,24.1,5.0,44,30.20,10.0,Calm,Calm,-,N/A,,Mostly Cloudy,0,2012-10-06 08:53:00
3:53 AM,19.0,6.1,57,30.22,10.0,WSW,4.6,-,N/A,,Mostly Cloudy,240,2012-10-06 09:53:00
4:53 AM,19.0,12.9,77,30.23,10.0,SSW,6.9,-,N/A,,Clear,200,2012-10-06 10:53:00
5:53 AM,17.1,14.0,88,30.27,10.0,Calm,Calm,-,N/A,,Clear,0,2012-10-06 11:53:00
6:53 AM,18.0,14.0,84,30.31,10.0,Calm,Calm,-,N/A,,Clear,0,2012-10-06 12:53:00
7:53 AM,14.0,10.9,88,30.38,10.0,NNW,5.8,-,N/A,,Clear,330,2012-10-06 13:53:00
8:53 AM,24.1,17.1,75,30.36,10.0,SSW,4.6,-,N/A,,Clear,210,2012-10-06 14:53:00
9:53 AM,27.0,17.1,66,30.36,10.0,South,6.9,-,N/A,,Partly Cloudy,190,2012-10-06 15:53:00
10:53 AM,30.9,16.0,54,30.35,10.0,SSW,9.2,-,N/A,,Scattered Clouds,200,2012-10-06 16:53:00
11:53 AM,34.0,17.1,50,30.32,10.0,SSE,8.1,-,N/A,,Clear,150,2012-10-06 17:53:00
12:53 PM,36.0,15.1,43,30.28,10.0,SSE,5.8,-,N/A,,Clear,160,2012-10-06 18:53:00
1:53 PM,39.9,12.0,32,30.24,10.0,SSE,6.9,-,N/A,,Clear,150,2012-10-06 19:53:00
2:53 PM,42.1,10.0,27,30.20,10.0,East,6.9,-,N/A,,Clear,90,2012-10-06 20:53:00
3:53 PM,43.0,10.9,27,30.20,10.0,SSE,6.9,-,N/A,,Clear,160,2012-10-06 21:53:00
4:53 PM,43.0,12.0,28,30.18,10.0,Variable,3.5,-,N/A,,Clear,0,2012-10-06 22:53:00
5:53 PM,43.0,12.0,28,30.19,10.0,WSW,6.9,-,N/A,,Clear,240,2012-10-06 23:53:00
6:53 PM,36.0,14.0,41,30.22,10.0,SW,6.9,-,N/A,,Clear,230,2012-10-07 00:53:00
7:53 PM,30.9,12.9,47,30.26,10.0,West,5.8,-,N/A,,Clear,260,2012-10-07 01:53:00
8:53 PM,26.1,10.0,51,30.25,10.0,NNW,6.9,-,N/A,,Clear,340,2012-10-07 02:53:00
9:53 PM,23.0,9.0,55,30.25,10.0,NNW,9.2,-,N/A,,Clear,340,2012-10-07 03:53:00
10:53 PM,23.0,10.0,58,30.23,10.0,Calm,Calm,-,N/A,,Clear,0,2012-10-07 04:53:00
11:53 PM,21.0,9.0,60,30.23,10.0,East,5.8,-,N/A,,Clear,80,2012-10-07 05:53:00